EDT,Max TemperatureF,Mean TemperatureF,Min TemperatureF,Max Dew PointF,MeanDew PointF,Min DewpointF,Max Humidity, Mean Humidity, Min Humidity, Max Sea Level PressureIn, Mean Sea Level PressureIn, Min Sea Level PressureIn, Max VisibilityMiles, Mean VisibilityMiles, Min VisibilityMiles, Max Wind SpeedMPH, Mean Wind SpeedMPH, Max Gust SpeedMPH,PrecipitationIn, CloudCover, Events, WindDirDegrees
2013-7-1,82,66,50,55,50,43,93,65,36,30.15,30.10,30.05,10,10,10,14,5,20,0.00,4,,33
2013-7-2,74,60,46,54,47,41,86,62,38,30.16,30.12,30.08,10,10,10,13,4,17,0.00,5,,27
2013-7-3,77,67,56,59,54,50,86,68,49,30.11,30.07,30.02,10,10,8,10,3,16,0.00,6,Thunderstorm,49
2013-7-4,81,72,63,63,60,55,93,69,45,30.09,30.05,30.02,10,9,6,13,4,18,T,6,Rain,239
2013-7-5,89,77,65,63,58,54,81,56,31,30.06,30.02,29.98,10,10,7,15,5,22,0.00,2,,238
2013-7-6,90,79,67,63,59,55,76,55,34,30.04,30.00,29.94,10,9,7,15,6,21,0.00,3,,237
2013-7-7,90,78,65,66,63,60,87,64,40,29.98,29.93,29.90,10,10,6,13,4,20,T,4,,233
2013-7-8,81,75,69,71,68,64,97,80,62,29.97,29.93,29.90,10,7,1,17,4,29,0.96,7,Rain-Thunderstorm,231
2013-7-9,84,76,68,70,67,66,93,74,55,29.99,29.91,29.73,10,6,0,10,3,15,0.14,7,Fog-Rain-Thunderstorm,20
2013-7-10,75,67,58,70,62,54,90,70,49,29.96,29.82,29.72,10,10,2,20,9,25,0.00,5,Rain,300
2013-7-11,74,66,57,59,55,50,90,67,44,30.09,30.05,29.97,10,10,9,14,5,20,0.00,2,,26
2013-7-12,84,69,54,64,54,48,93,62,31,30.18,30.13,30.09,10,10,10,12,3,15,0.00,1,,55
2013-7-13,88,75,61,63,59,55,93,64,35,30.19,30.16,30.11,10,10,9,13,4,17,0.00,1,,120
2013-7-14,89,76,63,68,62,58,84,61,37,30.24,30.22,30.19,10,10,10,13,3,16,0.00,1,,43
2013-7-15,88,77,65,68,64,62,93,68,43,30.29,30.26,30.22,10,10,6,12,3,15,0.00,1,,40
2013-7-16,95,81,67,71,67,64,87,66,44,30.28,30.23,30.19,10,10,6,15,4,22,T,3,,256
2013-7-17,96,87,77,72,70,62,82,58,34,30.22,30.17,30.11,10,10,8,16,7,21,0.00,3,,266
2013-7-18,96,86,75,71,69,65,87,63,38,30.11,29.98,29.81,10,10,10,18,8,30,0.00,3,,248
2013-7-19,93,81,68,70,67,61,69,55,41,29.80,29.69,29.65,10,10,10,26,11,36,0.01,4,Rain-Thunderstorm,278
2013-7-20,74,64,54,62,53,43,93,64,35,30.00,29.87,29.76,10,10,10,15,7,21,0.00,2,,7
2013-7-21,77,62,47,55,48,43,86,59,31,30.05,30.00,29.93,10,10,10,12,3,17,0.00,5,,41
2013-7-22,88,75,62,63,60,54,84,63,42,29.93,29.79,29.65,10,10,10,13,6,20,0.00,3,,206
2013-7-23,76,68,60,66,57,45,78,67,55,29.96,29.76,29.64,10,9,0,28,11,40,1.13,6,Fog-Rain-Thunderstorm,337
2013-7-24,71,61,50,51,47,41,93,69,44,30.07,30.03,29.96,10,10,10,12,4,16,0.00,3,,37
2013-7-25,80,65,50,52,50,46,89,62,35,30.08,30.04,29.99,10,10,10,12,4,21,0.11,3,,222
2013-7-26,79,68,57,62,57,48,93,74,54,29.99,29.92,29.83,10,8,2,16,4,25,0.33,7,Rain,199
2013-7-27,63,59,55,61,55,49,93,83,72,29.86,29.83,29.80,10,9,2,15,6,18,0.04,8,Rain,322
2013-7-28,67,59,51,54,51,48,93,73,52,29.90,29.83,29.76,10,9,2,20,5,26,0.09,7,Rain,248
2013-7-29,71,63,55,55,54,51,93,73,53,30.18,30.02,29.90,10,10,3,14,6,18,0.02,6,,292
2013-7-30,75,64,52,61,55,51,93,73,53,30.21,30.16,30.10,10,10,10,8,2,13,0.00,4,,38
2013-7-31,78,70,62,63,60,57,87,71,54,30.10,29.98,29.88,10,10,10,12,4,15,T,6,Thunderstorm,239